Weather History for Phuket, Thailand

Change the Weather History Date:

Monday, March 18, 2013

  Actual Average Record
Temperature  
Mean Temperature 84 °F -  
Max Temperature 95 °F 91 °F 100 °F (1997)
Min Temperature 74 °F 77 °F 73 °F (2014)
Cooling Degree Days 20    
Growing Degree Days 34 (Base 50)    
Moisture  
Dew Point 74 °F    
Average Humidity 72    
Maximum Humidity 91    
Minimum Humidity 51    
Precipitation  
Precipitation 0.00 in 0.16 in - ()
Sea Level Pressure  
Sea Level Pressure 29.82 in    
Wind  
Wind Speed 5 mph ()    
Max Wind Speed 15 mph    
Max Gust Speed -    
Visibility 6.2 miles    
Events      
Averages and records for this station are not official NWS values.
T = Trace of Precipitation, MM = Missing Value Source: Averaged Metar Reports

Daily Weather History Graph

Daily Weather History Graph

Search for Another Location

Airport:

Trip Planner

Search our weather history database for the weather conditions in past years. The results will help you decide how hot, cold, wet, or windy it might be!

Date:

Astronomy

Mar. 18, 2013 Rise Set
Actual Time 6:32 AM ICT 6:37 PM ICT
Civil Twilight 6:11 AM ICT 6:58 PM ICT
Nautical Twilight 5:46 AM ICT 7:22 PM ICT
Astronomical Twilight 5:22 AM ICT 7:47 PM ICT
Moon 11:09 AM ICT (3/18) 11:57 PM ICT (3/18)
Length of Visible Light 12h 47m
Length of Day
12h 05m
Waxing Crescent, 36% of the Moon is Illuminated
Mar 18
Waxing Crescent
Mar 20
First Quarter
Mar 27
Full
Apr 3
Last Quarter
Apr 10
New

Hourly Weather History & Observations

Time (ICT) Temp. Heat Index Dew Point Humidity Pressure Visibility Wind Dir Wind Speed Gust Speed Precip Events Conditions
12:00 AM 78.8 °F - 75.2 °F 89% 29.86 in 6.2 mi Calm Calm - N/A   Partly Cloudy
12:30 AM 78.8 °F - 75.2 °F 89% 29.86 in 6.2 mi Calm Calm - N/A   Partly Cloudy
1:00 AM 81 °F - 77 °F 85% 29.83 in 6 mi Calm Calm - -   Scattered Clouds
1:00 AM 78.8 °F - 75.2 °F 89% 29.86 in 6.2 mi Calm Calm - N/A   Partly Cloudy
1:30 AM 78.8 °F - 75.2 °F 89% 29.83 in 6.2 mi Calm Calm - N/A   Partly Cloudy
2:00 AM 78.8 °F - 75.2 °F 89% 29.83 in 6.2 mi Calm Calm - N/A   Partly Cloudy
3:30 AM 77.0 °F - 73.4 °F 89% 29.80 in 6.2 mi Calm Calm - N/A   Partly Cloudy
4:00 AM 77.0 °F - 73.4 °F 89% 29.80 in 6.2 mi Calm Calm - N/A   Partly Cloudy
4:30 AM 77.0 °F - 73.4 °F 89% 29.80 in 6.2 mi Calm Calm - N/A   Partly Cloudy
5:00 AM 77.0 °F - 73.4 °F 89% 29.80 in 6.2 mi Calm Calm - N/A   Partly Cloudy
5:30 AM 77.0 °F - 73.4 °F 89% 29.83 in 6.2 mi Calm Calm - N/A   Partly Cloudy
6:00 AM 77.0 °F - 73.4 °F 89% 29.83 in 6.2 mi Calm Calm - N/A   Partly Cloudy
6:30 AM 77.0 °F - 73.4 °F 89% 29.83 in 6.2 mi Calm Calm - N/A   Partly Cloudy
7:00 AM 77 °F - 75 °F 91% 29.88 in 6 mi Calm Calm - -   Scattered Clouds
7:00 AM 77.0 °F - 73.4 °F 89% 29.83 in 6.2 mi East 5.8 mph - N/A   Partly Cloudy
7:30 AM 78.8 °F - 75.2 °F 89% 29.86 in 6.2 mi East 5.8 mph - N/A   Partly Cloudy
8:00 AM 84.2 °F 90.9 °F 73.4 °F 70% 29.86 in 6.2 mi East 9.2 mph - N/A   Partly Cloudy
8:30 AM 84.2 °F 92.3 °F 75.2 °F 74% 29.86 in 6.2 mi East 5.8 mph - N/A   Partly Cloudy
9:00 AM 86.0 °F 95.1 °F 75.2 °F 70% 29.86 in 6.2 mi East 6.9 mph - N/A   Partly Cloudy
9:30 AM 87.8 °F 95.6 °F 73.4 °F 62% 29.86 in 6.2 mi ENE 9.2 mph - N/A   Scattered Clouds
10:00 AM 89.6 °F 98.2 °F 73.4 °F 59% 29.86 in 6.2 mi ENE 9.2 mph - N/A   Scattered Clouds
10:30 AM 87.8 °F 95.6 °F 73.4 °F 62% 29.86 in 6.2 mi ENE 10.4 mph - N/A   Scattered Clouds
11:00 AM 89.6 °F 98.2 °F 73.4 °F 59% 29.89 in 6.2 mi ENE 9.2 mph - N/A   Mostly Cloudy
11:30 AM 91.4 °F 100.1 °F 73.4 °F 55% 29.86 in 6.2 mi WSW 8.1 mph - N/A   Scattered Clouds
12:00 PM 89.6 °F 98.2 °F 73.4 °F 59% 29.86 in 6.2 mi WNW 11.5 mph - N/A   Mostly Cloudy
12:30 PM 91.4 °F 98.4 °F 71.6 °F 52% 29.83 in 6.2 mi West 11.5 mph - N/A   Mostly Cloudy
1:00 PM 92 °F - 76 °F 51% 29.87 in 6 mi West 10.4 mph - -   Scattered Clouds
1:00 PM 91.4 °F 100.1 °F 73.4 °F 55% 29.83 in 6.2 mi West 10.4 mph - N/A   Mostly Cloudy
1:30 PM 91.4 °F 100.1 °F 73.4 °F 55% 29.80 in 6.2 mi West 11.5 mph - N/A   Mostly Cloudy
2:00 PM 91.4 °F 100.1 °F 73.4 °F 55% 29.80 in 6.2 mi West 13.8 mph - N/A   Mostly Cloudy
2:30 PM 91.4 °F 102.5 °F 75.2 °F 59% 29.80 in 6.2 mi West 15.0 mph - N/A   Mostly Cloudy
3:00 PM 89.6 °F 98.2 °F 73.4 °F 59% 29.77 in 6.2 mi West 13.8 mph - N/A   Scattered Clouds
3:30 PM 89.6 °F 96.2 °F 71.6 °F 55% 29.77 in 6.2 mi WSW 10.4 mph - N/A   Scattered Clouds
4:00 PM 87.8 °F 97.6 °F 75.2 °F 66% 29.77 in 6.2 mi WSW 13.8 mph - N/A   Scattered Clouds
4:30 PM 89.6 °F 99.8 °F 75.2 °F 62% 29.74 in 6.2 mi West 15.0 mph - N/A   Scattered Clouds
5:00 PM 87.8 °F 97.6 °F 75.2 °F 66% 29.77 in 6.2 mi West 12.7 mph - N/A   Scattered Clouds
5:30 PM 87.8 °F 97.6 °F 75.2 °F 66% 29.77 in 6.2 mi West 13.8 mph - N/A   Scattered Clouds
6:00 PM 87.8 °F 97.6 °F 75.2 °F 66% 29.77 in 6.2 mi West 11.5 mph - N/A   Scattered Clouds
6:30 PM 86.0 °F 95.1 °F 75.2 °F 70% 29.77 in 6.2 mi WNW 11.5 mph - N/A   Scattered Clouds
7:00 PM 87 °F - 77 °F 65% 29.74 in 6 mi West 10.4 mph - -   Scattered Clouds
7:00 PM 86.0 °F 95.1 °F 75.2 °F 70% 29.77 in 6.2 mi West 10.4 mph - N/A   Scattered Clouds
7:30 PM 86.0 °F 95.1 °F 75.2 °F 70% 29.80 in 6.2 mi WNW 9.2 mph - N/A   Scattered Clouds
8:00 PM 86.0 °F 93.4 °F 73.4 °F 66% 29.80 in 6.2 mi West 6.9 mph - N/A   Scattered Clouds
8:30 PM 84.2 °F 92.3 °F 75.2 °F 74% 29.83 in 6.2 mi WNW 8.1 mph - N/A   Scattered Clouds
9:00 PM 86.0 °F 95.1 °F 75.2 °F 70% 29.83 in 6.2 mi West 9.2 mph - N/A   Scattered Clouds
9:30 PM 84.2 °F 92.3 °F 75.2 °F 74% 29.83 in 6.2 mi WNW 6.9 mph - N/A   Scattered Clouds
10:00 PM 84.2 °F 92.3 °F 75.2 °F 74% 29.83 in 6.2 mi WNW 5.8 mph - N/A   Scattered Clouds
10:30 PM 84.2 °F 92.3 °F 75.2 °F 74% 29.83 in 6.2 mi WNW 8.1 mph - N/A   Scattered Clouds
11:30 PM 84.2 °F 92.3 °F 75.2 °F 74% 29.83 in 6.2 mi NW 3.5 mph - N/A   Scattered Clouds